loading
|
Showing default

LAGEOS 1, 8820

Orbit data source: Space-Track

LAGEOS 1, 8820 is a payload satellite owned by NASA MSFC (US) that was launched on Tue, 04 May 1976 UTC via a DELTA 2913 launch vehicle from the Air Force Western Test Range (AFWTR). Payloads include a variety of satellites, spacecraft, and rockets equipped with specific instruments for various scientific and technological missions. These include communications satellites like Starlink; space stations such as the ISS; scientific satellites like the Hubble; Earth observation satellites from companies like Planet Labs, Umbra, and HawkEye 360; GPS; miniature CubeSats for education and research; and military/defense satellites.

Loading next visibility...
Loading greatness...
LAGEOS 1 details
Identifier
8820, 1976-039A
Orbit
Active
Last TLE update19 hours ago
Origin
Flag of USNASA MSFC (US)
ManufacturerBendix
Mission statusOperational
MissionCivil Geodetic
Bus & MotorLAGEOS, Unknown motor
Mass411 kg wet, 411 kg dry
Launch date (UTC)
1976-05-04 (48 years ago)
Launch vehicle
DELTA 2913
Launch site
Air Force Western Test Range (AFWTR)
Object type
Payload
Rocket body
Debris
Radar Cross SectionMedium (>0.1 m² and <1 m²)

Expand to show TLE details & history

TLE from 19 hours ago
0 LAGEOS 1
1 08820U 76039A   24261.13087576  .00000016  00000-0  00000-0 0  9992
2 08820 109.8602 320.7949 0044004  78.8934 300.5394  6.38665037872398
Epoch: 2024-09-17T03:08Z
Definitive object data (Epoch: 2024-09-17T03:08:27.665Z)
Latitude17.80855°
Longitude-89.5155°
Altitude5,866.719 km
Speed5.713 km/s
True Right ascension20h 56m 35s
True Declination17° 45' 01"
Sunlit
Object was in daylight at TLE epoch
Predictive object data (real-time)
Latitude17.33424°
Longitude-89.05777°
Altitude5,866.959 km
Speed5.713 km/s
Apparent Right ascension22h 27m 10s
Apparent Declination-1° 55' 21"
Sunlit
Object is in daylight
Predictive observer data (real-time)
Local Sidereal Time14:44:24
Azimuth74.353° E
Elevation-20.721°
Doppler factor1
Orbital elements
Apogee5,945.873 km
Perigee5,837.887 km
Semi-major axis12,270.017 km
Eccentricity0.0044004
Inclination109.8602°
RAAN320.7949°
Arg. of periapsis78.8934°
True anomaly300.10389°
Mean anomaly300.5394°
Eccentric anomaly300.32177°
Mean motion1.59689 °/min
BSTARUnknown
Period225.44 mins
No data available
Other satellites on launch #39 in the year 1976 (1976-05-04 UTC)

LAGEOS 1 Visibility forecast

Observer location: 39.9160978°, -105.1181434

LAGEOS 1 is not visible in the next 10 days
Span
Click to sort rows by Start time (UTC) header in descending order
Start Az.
Max El. time (UTC)
Max El. Az.
Max El.
End time (UTC)
End Az.